This demonstration page uses our WeatherBlox Daily Observations layout. Learn more.

Hourly Observations for March 10, 2018

Temp ( °F °C ) Dew Point ( °F °C ) Humidity (%) Winds ( mph kmh ) Pressure ( in mb ) Visibility ( mi km ) Precip ( " mm )
12:15 am 00:15 Clear 35 1.8 25 -4 66 66 SSE 10 17 29.85 1011 10 16.0934 0 0
12:35 am 00:35 Clear 35 1.9 25 -3.8 66 66 SSE 10 17 29.85 1011 10 16.0934 0 0
12:55 am 00:55 Clear 35 1.6 25 -3.9 67 67 S 9 15 29.85 1011 10 16.0934 0 0
1:15 am 01:15 Clear 34 1.2 25 -4 69 69 S 7 11 29.85 1011 10 16.0934 0 0
1:35 am 01:35 Clear 34 0.9 24 -4.2 69 69 SSE 7 11 29.85 1011 10 16.0934 0 0
1:55 am 01:55 Clear 32 0.2 24 -4.5 71 71 S 7 11 29.88 1012 10 16.0934 0 0
2:15 am 02:15 Clear 34 1 24 -4.2 69 69 S 6 9 29.85 1011 10 16.0934 0 0
2:35 am 02:35 Clear 32 0.1 24 -4.6 71 71 S 6 9 29.88 1012 10 16.0934 0 0
2:55 am 02:55 Clear 34 1.1 25 -4.1 69 69 S 10 17 29.85 1011 10 16.0934 0 0
3:15 am 03:15 Clear 34 1 24 -4.2 69 69 S 9 15 29.85 1011 10 16.0934 0 0
3:35 am 03:35 Clear 33 0.6 25 -4.1 71 71 S 12 19 29.88 1012 10 16.0934 0 0
3:55 am 03:55 Clear 34 1.1 25 -3.9 70 70 S 14 22 29.85 1011 10 16.0934 0 0
4:15 am 04:15 Clear 35 1.8 25 -3.8 67 67 S 14 22 29.85 1011 10 16.0934 0 0
4:35 am 04:35 Clear 35 1.5 25 -3.8 68 68 SSW 13 20 29.85 1011 10 16.0934 0 0
4:55 am 04:55 Clear 35 1.6 25 -3.9 67 67 SSW 13 20 29.85 1011 10 16.0934 0 0
5:15 am 05:15 Clear 35 1.4 25 -4 68 68 SSW 15 24 29.85 1011 10 16.0934 0 0
5:35 am 05:35 Clear 34 1.3 25 -4.1 68 68 SW 12 19 29.85 1011 10 16.0934 0 0
5:55 am 05:55 Clear 35 1.6 24 -4.2 66 66 SSW 12 19 29.85 1011 10 16.0934 0 0
6:15 am 06:15 Clear 36 2.1 25 -4.1 64 64 SSW 12 19 29.85 1011 10 16.0934 0 0
6:35 am 06:35 Clear 37 2.6 25 -4.1 62 62 SSW 14 22 29.85 1011 10 16.0934 0 0
6:55 am 06:55 Clear 37 2.5 24 -4.2 62 62 SW 9 15 29.83 1010 10 16.0934 0 0
7:15 am 07:15 Sunny 37 2.8 25 -4.1 61 61 SW 9 15 29.85 1011 10 16.0934 0 0
7:35 am 07:35 Sunny 37 2.6 24 -4.2 61 61 SW 7 11 29.85 1011 10 16.0934 0 0
7:55 am 07:55 Partly Cloudy 38 3.3 25 -3.8 60 60 WSW 7 11 29.85 1011 10 16.0934 0 0
8:15 am 08:15 Partly Cloudy 40 4.5 26 -3.5 56 56 W 13 20 29.83 1010 10 16.0934 0 0
8:35 am 08:35 Sunny 42 5.5 27 -3 55 55 W 13 20 29.83 1010 10 16.0934 0 0
8:55 am 08:55 Partly Cloudy 43 6.3 27 -2.6 53 53 W 13 20 29.83 1010 10 16.0934 0 0
9:15 am 09:15 Partly Cloudy 48 8.7 28 -2.3 46 46 W 13 20 29.8 1009 10 16.0934 0 0
9:35 am 09:35 Sunny 49 9.3 27 -2.6 43 43 WNW 13 20 29.8 1009 10 16.0934 0 0
9:55 am 09:55 Mostly Cloudy 49 9.5 27 -2.7 43 43 WNW 13 20 29.8 1009 10 16.0934 0 0
10:15 am 10:15 Mostly Cloudy 50 9.9 28 -2.3 43 43 NW 14 22 29.8 1009 10 16.0934 0 0
10:35 am 10:35 Mostly Cloudy 52 11.3 29 -1.6 41 41 NW 13 20 29.77 1008 10 16.0934 0 0
10:55 am 10:55 Mostly Cloudy 54 12.3 29 -1.5 39 39 NW 16 26 29.77 1008 10 16.0934 0 0
11:15 am 11:15 Partly Cloudy 54 12 30 -1.2 40 40 NW 21 33 29.77 1008 10 16.0934 0 0
11:35 am 11:35 Sunny 56 13.3 32 -0.2 40 40 NNW 16 26 29.77 1008 10 16.0934 0 0
11:55 am 11:55 Sunny 55 12.9 32 0 41 41 NW 21 33 29.77 1008 10 16.0934 0 0
12:15 pm 12:15 Sunny 57 13.8 33 0.3 40 40 NW 20 31 29.8 1009 10 16.0934 0 0
12:35 pm 12:35 Sunny 56 13.2 32 0.1 41 41 NNW 18 30 29.8 1009 10 16.0934 0 0
12:55 pm 12:55 Sunny 56 13.6 32 0 40 40 NNW 13 20 29.8 1009 10 16.0934 0 0
1:15 pm 13:15 Sunny 55 12.7 32 0 42 42 NNW 16 26 29.8 1009 10 16.0934 0 0
1:35 pm 13:35 Sunny 55 13 32 0.1 41 41 NW 14 22 29.8 1009 10 16.0934 0 0
1:55 pm 13:55 Sunny 55 12.6 33 0.4 43 43 NNW 15 24 29.8 1009 10 16.0934 0 0
2:15 pm 14:15 Sunny 55 12.9 33 0.7 44 44 NNW 14 22 29.8 1009 10 16.0934 0 0
2:35 pm 14:35 Sunny 55 12.8 34 1 45 45 NNW 13 20 29.8 1009 10 16.0934 0 0
2:55 pm 14:55 Partly Cloudy 56 13.4 34 1.3 44 44 NNW 14 22 29.8 1009 10 16.0934 0 0
3:15 pm 15:15 Mostly Cloudy 55 13 35 1.5 46 46 N 15 24 29.83 1010 10 16.0934 0 0
3:35 pm 15:35 Mostly Cloudy 54 12.1 35 1.8 50 50 NNW 20 31 29.85 1011 10 16.0934 0 0
3:55 pm 15:55 Mostly Cloudy 53 11.8 35 1.9 51 51 NNW 21 33 29.85 1011 10 16.0934 0 0
4:15 pm 16:15 Mostly Cloudy 52 11 34 1.2 51 51 NNW 21 33 29.91 1013 10 16.0934 0 0
4:35 pm 16:35 Partly Cloudy 51 10.7 34 1.3 53 53 NNW 21 33 29.91 1013 10 16.0934 0 0
4:55 pm 16:55 Partly Cloudy 49 9.7 35 1.4 57 57 N 18 30 29.94 1014 10 16.0934 0 0
5:15 pm 17:15 Partly Cloudy 48 8.8 34 1.2 59 59 NNW 23 37 30 1016 10 16.0934 0 0
5:35 pm 17:35 Cloudy 47 8.5 34 1 60 60 NNW 20 31 30 1016 10 16.0934 0 0
5:55 pm 17:55 Partly Cloudy 45 7.2 33 0.5 63 63 N 20 31 30 1016 10 16.0934 0 0
6:20 pm 18:20 Sunny 43 6 32 0 66 66 N 14 22 30.03 1017 10 16.0934 0 0
6:35 pm 18:35 Sunny 41 5.2 32 0 69 69 N 13 20 30.06 1018 10 16.0934 0 0
6:55 pm 18:55 Clear 38 3.6 31 -0.4 75 75 N 9 15 30.06 1018 10 16.0934 0 0
7:20 pm 19:20 Clear 38 3.1 31 -0.3 79 79 N 7 11 30.06 1018 10 16.0934 0 0
7:35 pm 19:35 Clear 36 2.2 30 -0.9 80 80 N 6 9 30.12 1020 10 16.0934 0 0
7:55 pm 19:55 Clear 35 1.9 31 -0.5 84 84 N 7 11 30.12 1020 10 16.0934 0 0
8:20 pm 20:20 Clear 36 2.1 31 -0.3 84 84 N 9 15 30.15 1021 10 16.0934 0 0
8:35 pm 20:35 Partly Cloudy 35 1.6 31 -0.6 85 85 NNW 9 15 30.15 1021 10 16.0934 0 0
8:50 pm 20:50 Mostly Cloudy 36 2.2 32 -0.1 85 85 N 12 19 30.18 1022 10 16.0934 0 0
9:20 pm 21:20 Mostly Cloudy with Light Rain 36 2.1 31 -0.4 84 84 N 12 19 30.18 1022 10 16.0934 0 0
9:35 pm 21:35 Mostly Cloudy 36 2.1 31 -0.6 83 83 N 14 22 30.18 1022 10 16.0934 0 0
9:55 pm 21:55 Mostly Cloudy 35 1.8 31 -0.8 83 83 N 9 15 30.18 1022 10 16.0934 0 0
10:20 pm 22:20 Cloudy 36 2 30 -1.2 80 80 N 18 30 30.21 1023 10 16.0934 0 0
10:35 pm 22:35 Cloudy 35 1.6 28 -2.1 77 77 NNW 17 28 30.21 1023 10 16.0934 0 0
10:55 pm 22:55 Cloudy 34 1.3 28 -2.4 77 77 N 17 28 30.21 1023 10 16.0934 0 0
11:20 pm 23:20 Cloudy 33 0.8 27 -2.8 77 77 N 18 30 30.21 1023 10 16.0934 0 0
11:35 pm 23:35 Cloudy 33 0.6 26 -3.2 76 76 NNW 17 28 30.24 1024 10 16.0934 0 0
11:50 pm 23:50 Cloudy 33 0.3 26 -3.5 76 76 N 14 22 30.24 1024 10 16.0934 0 0

Powered by AerisWeather